Weather observations for the past three days for
Watertown, Watertown International Airport
Imperial (Metric)
Date Time (edt) Wind (mph) Vis. (mi.) Weather Sky Cond. Temperature (ºF) Relative Humidity Wind Chill (°F) Heat Index (°F) Pressure Precipitation (in)
Air Dwpt 6 hour altimeter (in) sea level (mb) 1 hr 3 hr 6 hr
Max. Min.
16 03:56 SW 7 10.00 Overcast BKN009 OVC027 72 70 94% 29.75 1007.0
16 02:56 W 8 10.00 Mostly Cloudy SCT007 BKN023 72 70 94% 29.74 1006.4
16 01:56 SW 8 10.00 Overcast OVC010 73 71.1 75 71.1 94% 29.72 1005.8 0.01
16 00:56 SW 7 10.00 Overcast SCT009 BKN019 OVC025 72 70 94% 29.73 1006.2
15 23:56 S 6 10.00 Overcast OVC006 71.1 69.1 94% 29.72 1005.8
15 22:56 Vrbl 3 10.00 Overcast SCT020 OVC050 72 69.1 91% 29.72 1005.9 0.01
15 21:56 S 5 7.00 Overcast FEW040 BKN055 OVC075 73.9 72 94% 29.74 1006.4
15 20:56 Calm 4.00 Fog/Mist FEW060 SCT095 75 73 94% 73 29.71 1005.5 0.01
15 19:56 Calm 3.00 Light Rain Fog/Mist BKN110 75 73 82 73.9 94% 73 29.73 1006.0 0.15 0.22
15 18:56 W 3 2.00 Rain Fog/Mist SCT110 75 73 94% 73 29.74 1006.5 0.07
15 17:56 W 6 10.00 Light Rain BKN100 79 73 82% 82 29.73 1006.2
15 16:56 W 3 10.00 Fair CLR 81 72 74% 85 29.72 1005.9
15 15:56 W 5 10.00 Fair CLR 80.1 72 76% 84 29.76 1007.1
15 14:56 W 10 10.00 A Few Clouds FEW024 81 73 77% 86 29.8 1008.5
15 13:56 W 10 10.00 Overcast OVC021 81 73 81 75.9 77% 86 29.82 1009.2
15 12:56 SW 10 10.00 Overcast BKN015 OVC020 80.1 73 79% 84 29.84 1009.8
15 11:56 SW 10 10.00 Overcast OVC014 77 72 85% 78 29.85 1010.2
15 10:56 SW 8 10.00 Overcast OVC013 75.9 71.1 85% 76 29.86 1010.5
15 09:56 SW 10 10.00 Overcast OVC012 77 71.1 82% 79 29.86 1010.6
15 08:56 SW 7 10.00 Overcast OVC011 75.9 71.1 85% 76 29.86 1010.7
15 07:56 SW 6 10.00 Overcast OVC012 75.9 71.1 75.9 71.1 85% 76 29.85 1010.2
15 06:56 SW 5 10.00 Overcast OVC013 73.9 70 88% 29.85 1010.1
15 05:56 SW 5 10.00 A Few Clouds FEW016 72 68 87% 29.85 1010.2
15 04:56 S 6 10.00 Mostly Cloudy BKN050 72 66.9 84% 29.85 1010.0
15 03:56 S 6 10.00 Fair CLR 73 66.9 81% 29.83 1009.4
15 02:56 Vrbl 3 10.00 Overcast FEW035 BKN050 OVC065 73.9 66 76% 29.83 1009.5
15 01:56 S 3 10.00 Partly Cloudy SCT046 73.9 66 80.1 73 76% 29.84 1009.6
15 00:56 Calm 10.00 Partly Cloudy SCT120 73.9 66 76% 29.84 1009.9
14 23:56 Calm 10.00 Mostly Cloudy FEW060 SCT090 BKN120 73.9 66.9 79% 29.86 1010.4
14 22:56 S 3 10.00 Light Rain BKN070 OVC085 73 68 84% 29.87 1010.8
14 21:56 S 3 10.00 Light Rain FEW065 OVC090 73.9 68 82% 29.88 1011.3
14 20:56 SW 7 10.00 Mostly Cloudy BKN080 75.9 68 77% 77 29.89 1011.7
14 19:56 S 3 10.00 Fair CLR 80.1 68 84.9 80.1 67% 83 29.88 1011.3
14 18:56 S 3 10.00 A Few Clouds FEW090 82 66 58% 84 29.9 1011.8
14 17:56 Calm 10.00 Fair CLR 82 64 55% 84 29.9 1012.0
14 16:56 SW 5 10.00 Fair CLR 82.9 62.1 49% 84 29.92 1012.7
14 15:56 W 9 10.00 Fair CLR 84 64 51% 85 29.95 1013.5
14 14:56 Vrbl 6 10.00 Fair CLR 84.9 62.1 46% 85 29.96 1013.9
14 13:56 W 7 10.00 Fair CLR 82.9 64 82.9 71.1 53% 84 29.99 1014.9
14 12:56 SW 9 10.00 Fair CLR 82 63 53% 83 30.02 1015.9
14 11:56 W 9 10.00 Fair CLR 82 64.9 56% 84 30.03 1016.3
14 10:56 SW 7 10.00 Fair CLR 80.1 63 56% 81 30.04 1016.6
14 09:56 S 7 10.00 Fair CLR 78.1 64 62% 80 30.04 1016.8
14 08:56 S 8 10.00 Fair CLR 73.9 63 69% 30.06 1017.4
14 07:56 S 7 10.00 Fair CLR 71.1 62.1 71.1 64.9 73% 30.06 1017.4
14 06:56 S 6 10.00 Fair CLR 66.9 61 81% 30.05 1017.2
14 05:56 Calm 10.00 Fair CLR 64.9 60.1 84% 30.06 1017.4
14 04:56 S 3 10.00 Fair CLR 64.9 61 87% 30.06 1017.5
14 03:56 S 3 10.00 Fair CLR 66 61 84% 30.07 1017.7
14 02:56 S 3 10.00 Fair CLR 66 62.1 87% 30.07 1017.8
14 01:56 Calm 10.00 Fair CLR 66 62.1 75 66 87% 30.08 1018.0
14 00:56 Calm 10.00 Fair CLR 66.9 63 87% 30.08 1018.0
13 23:56 S 5 10.00 Fair CLR 68 64 87% 30.08 1018.1
13 22:56 Calm 10.00 Fair CLR 69.1 64 84% 30.08 1018.1
13 21:56 S 3 10.00 Fair CLR 69.1 64.9 87% 30.1 1018.5
13 20:56 S 3 10.00 Fair CLR 72 64.9 79% 30.1 1018.6
13 19:56 Calm 10.00 Fair CLR 75 66 81 75 74% 76 30.1 1018.6
13 18:56 SW 6 10.00 Fair CLR 77 66.9 71% 79 30.1 1018.9
13 17:56 W 10 10.00 Fair CLR 77 66.9 71% 79 30.1 1018.7
13 16:56 W 12 10.00 Fair CLR 80.1 69.1 69% 83 30.1 1018.9
13 15:56 W 13 10.00 Fair CLR 80.1 68 67% 83 30.11 1018.9
13 14:56 W 10 10.00 Fair CLR 81 66.9 62% 83 30.12 1019.3
13 13:56 W 10 10.00 Fair CLR 81 66 81 73 61% 83 30.13 1019.7
13 12:56 W 9 10.00 Fair CLR 80.1 66 62% 82 30.14 1020.2
13 11:56 SW 12 10.00 Fair CLR 80.1 68 67% 83 30.15 1020.6
13 10:56 W 9 10.00 Fair CLR 78.1 68 71% 80 30.14 1020.3
13 09:56 W 8 10.00 Fair CLR 79 68 69% 81 30.14 1020.1
13 08:56 Vrbl 5 10.00 Fair CLR 75.9 66.9 74% 77 30.15 1020.3
13 07:56 S 3 10.00 Fair CLR 73 68 73 64.9 84% 30.15 1020.3
13 06:56 Calm 10.00 Fair CLR 69.1 66.9 93% 30.14 1020.2
13 05:56 Calm 7.00 Partly Cloudy SCT100 66 64 93% 30.14 1020.3
13 04:56 Calm 9.00 Partly Cloudy SCT120 66 64 93% 30.13 1019.6
Date Time (edt) Wind (mph) Vis. (mi.) Weather Sky Cond. Air Dwpt Max. Min. Relative Humidity Wind Chill (°F) Heat Index (°F) altimeter (in) sea level (mb) 1 hr 3 hr 6 hr
6 hour
Temperature (ºF) Pressure Precipitation (in)